Time,TemperatureF,DewpointF,PressureIn,WindDirection,WindDirectionDegrees,WindSpeedMPH,WindSpeedGustMPH,Humidity,HourlyPrecipIn,Conditions,Clouds,dailyrainin,SoftwareType,DateUTC
2013-06-03 00:03:00,56.0,49.0,-100.00,NW,315,1.0,6.0,77,0.00,,,-99.99,,2013-06-03 04:03:00,
2013-06-03 00:13:00,56.0,49.0,-100.00,SSW,200,1.0,4.0,79,0.00,,,-99.99,,2013-06-03 04:13:00,
2013-06-03 00:23:00,56.0,49.0,-100.00,SW,225,0.0,3.0,78,0.00,,,-99.99,,2013-06-03 04:23:00,
2013-06-03 00:33:00,55.0,49.0,-100.00,West,280,1.0,5.0,80,0.00,,,-99.99,,2013-06-03 04:33:00,
2013-06-03 00:42:00,56.0,49.0,-100.00,NW,320,2.0,4.0,79,0.00,,,-99.99,,2013-06-03 04:42:00,
2013-06-03 00:53:00,56.0,49.0,-100.00,NW,320,3.0,6.0,79,0.00,,,-99.99,,2013-06-03 04:53:00,
2013-06-03 01:02:00,57.0,50.0,-100.00,West,260,1.0,7.0,77,0.00,,,-99.99,,2013-06-03 05:02:00,
2013-06-03 01:12:00,57.0,49.0,-100.00,NW,305,2.0,9.0,75,0.00,,,-99.99,,2013-06-03 05:12:00,
2013-06-03 01:22:00,57.0,49.0,-100.00,NW,315,3.0,6.0,74,0.00,,,-99.99,,2013-06-03 05:22:00,
2013-06-03 01:32:00,58.0,49.0,-100.00,NW,315,4.0,11.0,72,0.00,,,-99.99,,2013-06-03 05:32:00,
2013-06-03 01:42:00,57.0,49.0,-100.00,NNW,330,4.0,9.0,72,0.00,,,-99.99,,2013-06-03 05:42:00,
2013-06-03 01:52:00,57.0,48.0,-100.00,NNW,345,3.0,7.0,71,0.00,,,-99.99,,2013-06-03 05:52:00,
2013-06-03 02:02:00,57.0,48.0,-100.00,NNW,340,4.0,7.0,70,0.00,,,-99.99,,2013-06-03 06:02:00,
2013-06-03 02:12:00,57.0,47.0,-100.00,NNW,335,6.0,9.0,70,0.00,,,-99.99,,2013-06-03 06:12:00,
2013-06-03 02:22:00,57.0,47.0,-100.00,NNW,330,6.0,12.0,69,0.00,,,-99.99,,2013-06-03 06:22:00,
2013-06-03 02:32:00,56.0,47.0,-100.00,North,5,7.0,15.0,70,0.00,,,-99.99,,2013-06-03 06:32:00,
2013-06-03 02:42:00,56.0,46.0,-100.00,NW,325,6.0,11.0,68,0.00,,,-99.99,,2013-06-03 06:42:00,
2013-06-03 02:52:00,56.0,47.0,-100.00,NNW,335,4.0,10.0,70,0.00,,,-99.99,,2013-06-03 06:52:00,
2013-06-03 03:02:00,56.0,47.0,-100.00,NNW,335,4.0,10.0,70,0.00,,,-99.99,,2013-06-03 07:02:00,
2013-06-03 03:12:00,56.0,46.0,-100.00,NNW,335,6.0,12.0,69,0.00,,,-99.99,,2013-06-03 07:12:00,
2013-06-03 03:22:00,56.0,46.0,-100.00,NNW,345,4.0,10.0,69,0.00,,,-99.99,,2013-06-03 07:22:00,
2013-06-03 03:32:00,55.0,46.0,-100.00,NW,325,4.0,9.0,69,0.00,,,-99.99,,2013-06-03 07:32:00,
2013-06-03 03:42:00,55.0,45.0,-100.00,NW,310,4.0,8.0,69,0.00,,,-99.99,,2013-06-03 07:42:00,
2013-06-03 03:52:00,55.0,45.0,-100.00,NW,320,4.0,10.0,69,0.00,,,-99.99,,2013-06-03 07:52:00,
2013-06-03 04:02:00,55.0,46.0,-100.00,NW,315,2.0,7.0,70,0.00,,,-99.99,,2013-06-03 08:02:00,
2013-06-03 04:12:00,55.0,45.0,-100.00,NNW,340,4.0,10.0,69,0.00,,,-99.99,,2013-06-03 08:12:00,
2013-06-03 04:22:00,55.0,45.0,-100.00,NW,325,3.0,9.0,70,0.00,,,-99.99,,2013-06-03 08:22:00,
2013-06-03 04:32:00,55.0,45.0,-100.00,NW,315,3.0,12.0,71,0.00,,,-99.99,,2013-06-03 08:32:00,
2013-06-03 04:42:00,54.0,45.0,-100.00,NW,320,5.0,9.0,71,0.00,,,-99.99,,2013-06-03 08:42:00,
2013-06-03 04:52:00,54.0,46.0,-100.00,NW,315,3.0,9.0,74,0.00,,,-99.99,,2013-06-03 08:52:00,
2013-06-03 05:02:00,54.0,45.0,-100.00,NNW,340,6.0,7.0,72,0.00,,,-99.99,,2013-06-03 09:02:00,
2013-06-03 05:12:00,54.0,45.0,-100.00,NNW,330,5.0,9.0,71,0.00,,,-99.99,,2013-06-03 09:12:00,
2013-06-03 05:22:00,54.0,45.0,-100.00,NW,320,4.0,10.0,71,0.00,,,-99.99,,2013-06-03 09:22:00,
2013-06-03 05:33:00,54.0,45.0,-100.00,NNW,345,2.0,10.0,71,0.00,,,-99.99,,2013-06-03 09:33:00,
2013-06-03 05:42:00,54.0,45.0,-100.00,NW,325,3.0,9.0,73,0.00,,,-99.99,,2013-06-03 09:42:00,
2013-06-03 05:52:00,54.0,45.0,-100.00,NW,325,3.0,9.0,73,0.00,,,-99.99,,2013-06-03 09:52:00,
2013-06-03 06:03:00,53.0,44.0,-100.00,NNW,330,6.0,11.0,71,0.00,,,-99.99,,2013-06-03 10:03:00,
2013-06-03 06:12:00,53.0,44.0,-100.00,North,5,4.0,11.0,71,0.00,,,-99.99,,2013-06-03 10:12:00,
2013-06-03 06:22:00,53.0,44.0,-100.00,NW,325,4.0,9.0,72,0.00,,,-99.99,,2013-06-03 10:22:00,
2013-06-03 06:33:00,53.0,44.0,-100.00,North,350,4.0,10.0,71,0.00,,,-99.99,,2013-06-03 10:33:00,
2013-06-03 06:42:00,53.0,44.0,-100.00,NNW,345,4.0,11.0,72,0.00,,,-99.99,,2013-06-03 10:42:00,
2013-06-03 06:52:00,52.0,44.0,-100.00,NW,310,4.0,10.0,72,0.00,,,-99.99,,2013-06-03 10:52:00,
2013-06-03 07:02:00,52.0,44.0,-100.00,North,0,4.0,7.0,74,0.00,,,-99.99,,2013-06-03 11:02:00,
2013-06-03 07:12:00,52.0,43.0,-100.00,NNW,345,6.0,11.0,72,0.00,,,-99.99,,2013-06-03 11:12:00,
2013-06-03 07:22:00,52.0,44.0,-100.00,NNW,345,6.0,11.0,73,0.00,,,-99.99,,2013-06-03 11:22:00,
2013-06-03 07:32:00,52.0,43.0,-100.00,NNW,335,6.0,8.0,72,0.00,,,-99.99,,2013-06-03 11:32:00,
2013-06-03 07:42:00,52.0,43.0,-100.00,NNW,335,6.0,11.0,72,0.00,,,-99.99,,2013-06-03 11:42:00,
2013-06-03 07:52:00,52.0,43.0,-100.00,NNW,335,6.0,11.0,72,0.00,,,-99.99,,2013-06-03 11:52:00,
2013-06-03 08:02:00,52.0,44.0,-100.00,NNW,340,4.0,11.0,73,0.00,,,-99.99,,2013-06-03 12:02:00,
2013-06-03 08:12:00,52.0,44.0,-100.00,North,350,7.0,10.0,73,0.00,,,-99.99,,2013-06-03 12:12:00,
2013-06-03 08:22:00,52.0,44.0,-100.00,North,350,7.0,10.0,73,0.00,,,-99.99,,2013-06-03 12:22:00,
2013-06-03 08:32:00,53.0,44.0,-100.00,NNW,335,5.0,9.0,71,0.00,,,-99.99,,2013-06-03 12:32:00,
2013-06-03 08:42:00,53.0,44.0,-100.00,North,0,6.0,10.0,71,0.00,,,-99.99,,2013-06-03 12:42:00,
2013-06-03 08:52:00,53.0,44.0,-100.00,NNE,15,4.0,9.0,71,0.00,,,-99.99,,2013-06-03 12:52:00,
2013-06-03 09:02:00,53.0,45.0,-100.00,NNW,335,4.0,7.0,72,0.00,,,-99.99,,2013-06-03 13:02:00,
2013-06-03 09:12:00,53.0,45.0,-100.00,North,10,3.0,9.0,72,0.00,,,-99.99,,2013-06-03 13:12:00,
2013-06-03 09:22:00,54.0,44.0,-100.00,NNW,330,5.0,9.0,71,0.00,,,-99.99,,2013-06-03 13:22:00,
2013-06-03 09:32:00,55.0,45.0,-100.00,North,5,3.0,9.0,70,0.00,,,-99.99,,2013-06-03 13:32:00,
2013-06-03 09:42:00,55.0,44.0,-100.00,North,350,4.0,7.0,67,0.00,,,-99.99,,2013-06-03 13:42:00,
2013-06-03 09:52:00,55.0,44.0,-100.00,North,350,4.0,7.0,67,0.00,,,-99.99,,2013-06-03 13:52:00,
2013-06-03 10:12:00,55.0,41.0,-100.00,NNE,15,6.0,9.0,59,0.00,,,-99.99,,2013-06-03 14:12:00,
2013-06-03 10:22:00,56.0,43.0,-100.00,North,10,4.0,7.0,61,0.00,,,-99.99,,2013-06-03 14:22:00,
2013-06-03 10:32:00,57.0,43.0,-100.00,North,0,4.0,9.0,60,0.00,,,-99.99,,2013-06-03 14:32:00,
2013-06-03 10:42:00,58.0,44.0,-100.00,ENE,65,6.0,11.0,58,0.00,,,-99.99,,2013-06-03 14:42:00,
2013-06-03 10:52:00,57.0,44.0,-100.00,NNE,30,5.0,10.0,60,0.00,,,-99.99,,2013-06-03 14:52:00,
2013-06-03 11:02:00,57.0,42.0,-100.00,North,5,6.0,9.0,58,0.00,,,-99.99,,2013-06-03 15:02:00,
2013-06-03 11:12:00,57.0,43.0,-100.00,NNE,15,7.0,12.0,60,0.00,,,-99.99,,2013-06-03 15:12:00,
2013-06-03 11:22:00,57.0,43.0,-100.00,NNE,15,4.0,9.0,60,0.00,,,-99.99,,2013-06-03 15:22:00,
2013-06-03 11:33:00,56.0,42.0,-100.00,NNE,25,6.0,11.0,59,0.00,,,-99.99,,2013-06-03 15:33:00,
2013-06-03 11:43:00,57.0,43.0,-100.00,North,0,6.0,11.0,59,0.00,,,-99.99,,2013-06-03 15:43:00,
2013-06-03 11:53:00,56.0,41.0,-100.00,ENE,60,2.0,9.0,57,0.00,,,-99.99,,2013-06-03 15:53:00,
2013-06-03 12:03:00,58.0,45.0,-100.00,ESE,115,2.0,10.0,60,0.00,,,-99.99,,2013-06-03 16:03:00,
2013-06-03 12:13:00,58.0,44.0,-100.00,North,5,3.0,9.0,59,0.00,,,-99.99,,2013-06-03 16:13:00,
2013-06-03 12:23:00,58.0,44.0,-100.00,North,0,2.0,9.0,59,0.00,,,-99.99,,2013-06-03 16:23:00,
2013-06-03 12:33:00,58.0,42.0,-100.00,North,10,4.0,9.0,56,0.00,,,-99.99,,2013-06-03 16:33:00,
2013-06-03 12:42:00,58.0,43.0,-100.00,North,0,6.0,11.0,58,0.00,,,-99.99,,2013-06-03 16:42:00,
2013-06-03 12:53:00,59.0,43.0,-100.00,NNE,15,3.0,9.0,55,0.00,,,-99.99,,2013-06-03 16:53:00,
2013-06-03 13:02:00,58.0,40.0,-100.00,North,0,7.0,11.0,51,0.00,,,-99.99,,2013-06-03 17:02:00,
2013-06-03 13:12:00,59.0,40.0,-100.00,North,0,4.0,9.0,50,0.00,,,-99.99,,2013-06-03 17:12:00,
2013-06-03 13:22:00,58.0,40.0,-100.00,North,350,5.0,11.0,51,0.00,,,-99.99,,2013-06-03 17:22:00,
2013-06-03 13:33:00,58.0,41.0,-100.00,NNE,30,3.0,12.0,52,0.00,,,-99.99,,2013-06-03 17:33:00,
2013-06-03 13:42:00,59.0,41.0,-100.00,NNW,340,5.0,9.0,50,0.00,,,-99.99,,2013-06-03 17:42:00,
2013-06-03 13:52:00,59.0,40.0,-100.00,North,350,4.0,9.0,48,0.00,,,-99.99,,2013-06-03 17:52:00,
2013-06-03 14:02:00,59.0,39.0,-100.00,NNW,340,4.0,9.0,46,0.00,,,-99.99,,2013-06-03 18:02:00,
2013-06-03 14:12:00,59.0,34.0,-100.00,NE,45,5.0,8.0,38,0.00,,,-99.99,,2013-06-03 18:12:00,
2013-06-03 14:22:00,60.0,33.0,-100.00,NNW,340,4.0,9.0,37,0.00,,,-99.99,,2013-06-03 18:22:00,
2013-06-03 14:32:00,60.0,34.0,-100.00,North,5,4.0,8.0,37,0.00,,,-99.99,,2013-06-03 18:32:00,
2013-06-03 14:42:00,60.0,35.0,-100.00,NE,40,3.0,10.0,39,0.00,,,-99.99,,2013-06-03 18:42:00,
2013-06-03 14:52:00,61.0,38.0,-100.00,ENE,60,4.0,7.0,41,0.00,,,-99.99,,2013-06-03 18:52:00,
2013-06-03 15:03:00,61.0,37.0,-100.00,NE,45,4.0,8.0,40,0.00,,,-99.99,,2013-06-03 19:03:00,
2013-06-03 15:12:00,60.0,37.0,-100.00,ENE,60,6.0,10.0,41,0.00,,,-99.99,,2013-06-03 19:12:00,
2013-06-03 15:22:00,62.0,40.0,-100.00,North,10,4.0,10.0,43,0.00,,,-99.99,,2013-06-03 19:22:00,
2013-06-03 15:32:00,61.0,39.0,-100.00,ENE,65,4.0,12.0,44,0.00,,,-99.99,,2013-06-03 19:32:00,
2013-06-03 15:42:00,63.0,42.0,-100.00,North,5,6.0,9.0,46,0.00,,,-99.99,,2013-06-03 19:42:00,
2013-06-03 15:52:00,61.0,40.0,-100.00,East,85,2.0,9.0,45,0.00,,,-99.99,,2013-06-03 19:52:00,
2013-06-03 16:02:00,61.0,40.0,-100.00,NE,45,5.0,9.0,46,0.00,,,-99.99,,2013-06-03 20:02:00,
2013-06-03 16:12:00,62.0,40.0,-100.00,NE,50,6.0,11.0,44,0.00,,,-99.99,,2013-06-03 20:12:00,
2013-06-03 16:22:00,63.0,40.0,-100.00,ENE,75,3.0,9.0,43,0.00,,,-99.99,,2013-06-03 20:22:00,
2013-06-03 16:33:00,62.0,41.0,-100.00,East,80,6.0,10.0,47,0.00,,,-99.99,,2013-06-03 20:33:00,
2013-06-03 16:42:00,62.0,42.0,-100.00,ENE,75,6.0,9.0,49,0.00,,,-99.99,,2013-06-03 20:42:00,
2013-06-03 16:52:00,61.0,41.0,-100.00,NNE,25,4.0,11.0,46,0.00,,,-99.99,,2013-06-03 20:52:00,
2013-06-03 17:02:00,62.0,42.0,-100.00,ENE,60,4.0,9.0,48,0.00,,,-99.99,,2013-06-03 21:02:00,
2013-06-03 17:12:00,62.0,41.0,-100.00,NNE,20,3.0,8.0,46,0.00,,,-99.99,,2013-06-03 21:12:00,
2013-06-03 17:22:00,63.0,41.0,-100.00,NE,40,4.0,7.0,45,0.00,,,-99.99,,2013-06-03 21:22:00,
2013-06-03 17:33:00,63.0,41.0,-100.00,East,85,4.0,9.0,44,0.00,,,-99.99,,2013-06-03 21:33:00,
2013-06-03 17:43:00,64.0,43.0,-100.00,NE,40,4.0,8.0,46,0.00,,,-99.99,,2013-06-03 21:43:00,
2013-06-03 17:53:00,63.0,41.0,-100.00,NNE,30,3.0,9.0,44,0.00,,,-99.99,,2013-06-03 21:53:00,
2013-06-03 18:03:00,62.0,42.0,-100.00,ENE,70,6.0,9.0,47,0.00,,,-99.99,,2013-06-03 22:03:00,
2013-06-03 18:12:00,63.0,42.0,-100.00,NNE,25,3.0,7.0,46,0.00,,,-99.99,,2013-06-03 22:12:00,
2013-06-03 18:22:00,63.0,41.0,-100.00,SE,145,2.0,6.0,44,0.00,,,-99.99,,2013-06-03 22:22:00,
2013-06-03 18:33:00,64.0,40.0,-100.00,SW,235,2.0,3.0,42,0.00,,,-99.99,,2013-06-03 22:33:00,
2013-06-03 18:42:00,65.0,42.0,-100.00,East,90,2.0,3.0,43,0.00,,,-99.99,,2013-06-03 22:42:00,
2013-06-03 18:52:00,64.0,42.0,-100.00,ESE,105,3.0,4.0,43,0.00,,,-99.99,,2013-06-03 22:52:00,
2013-06-03 19:02:00,64.0,42.0,-100.00,SSE,160,2.0,4.0,44,0.00,,,-99.99,,2013-06-03 23:02:00,
2013-06-03 19:12:00,65.0,41.0,-100.00,SSE,160,1.0,4.0,41,0.00,,,-99.99,,2013-06-03 23:12:00,
2013-06-03 19:22:00,65.0,41.0,-100.00,North,350,0.0,3.0,41,0.00,,,-99.99,,2013-06-03 23:22:00,
2013-06-03 19:32:00,66.0,41.0,-100.00,West,260,1.0,2.0,39,0.00,,,-99.99,,2013-06-03 23:32:00,
2013-06-03 19:42:00,66.0,41.0,-100.00,SSW,205,1.0,2.0,40,0.00,,,-99.99,,2013-06-03 23:42:00,
2013-06-03 19:52:00,66.0,40.0,-100.00,SSE,165,0.0,2.0,38,0.00,,,-99.99,,2013-06-03 23:52:00,
2013-06-03 20:02:00,65.0,40.0,-100.00,ESE,110,0.0,2.0,40,0.00,,,-99.99,,2013-06-04 00:02:00,
2013-06-03 20:12:00,65.0,40.0,-100.00,WSW,245,1.0,2.0,40,0.00,,,-99.99,,2013-06-04 00:12:00,
2013-06-03 20:22:00,64.0,39.0,-100.00,SE,145,0.0,4.0,40,0.00,,,-99.99,,2013-06-04 00:22:00,
2013-06-03 20:32:00,64.0,42.0,-100.00,WSW,245,0.0,0.0,44,0.00,,,-99.99,,2013-06-04 00:32:00,
2013-06-03 20:42:00,64.0,40.0,-100.00,SSE,165,1.0,2.0,41,0.00,,,-99.99,,2013-06-04 00:42:00,
2013-06-03 20:52:00,63.0,44.0,-100.00,SE,125,1.0,2.0,49,0.00,,,-99.99,,2013-06-04 00:52:00,
2013-06-03 21:02:00,62.0,44.0,-100.00,ESE,115,3.0,4.0,51,0.00,,,-99.99,,2013-06-04 01:02:00,
2013-06-03 21:12:00,61.0,46.0,-100.00,SE,130,3.0,4.0,57,0.00,,,-99.99,,2013-06-04 01:12:00,
2013-06-03 21:22:00,60.0,47.0,-100.00,ESE,110,0.0,2.0,63,0.00,,,-99.99,,2013-06-04 01:22:00,
2013-06-03 21:32:00,59.0,46.0,-100.00,East,80,0.0,1.0,61,0.00,,,-99.99,,2013-06-04 01:32:00,
2013-06-03 21:42:00,59.0,45.0,-100.00,ESE,105,1.0,2.0,58,0.00,,,-99.99,,2013-06-04 01:42:00,
2013-06-03 21:52:00,58.0,46.0,-100.00,SE,125,2.0,2.0,64,0.00,,,-99.99,,2013-06-04 01:52:00,
2013-06-03 22:02:00,58.0,45.0,-100.00,SE,135,2.0,3.0,62,0.00,,,-99.99,,2013-06-04 02:02:00,
2013-06-03 22:12:00,57.0,44.0,-100.00,SSE,155,1.0,2.0,61,0.00,,,-99.99,,2013-06-04 02:12:00,
2013-06-03 22:22:00,57.0,45.0,-100.00,SE,130,1.0,2.0,63,0.00,,,-99.99,,2013-06-04 02:22:00,
2013-06-03 22:32:00,57.0,44.0,-100.00,ESE,105,2.0,3.0,61,0.00,,,-99.99,,2013-06-04 02:32:00,
2013-06-03 22:42:00,57.0,44.0,-100.00,SE,130,2.0,3.0,60,0.00,,,-99.99,,2013-06-04 02:42:00,
2013-06-03 22:52:00,56.0,44.0,-100.00,ESE,120,1.0,2.0,62,0.00,,,-99.99,,2013-06-04 02:52:00,
2013-06-03 23:02:00,56.0,44.0,-100.00,SSE,160,2.0,2.0,63,0.00,,,-99.99,,2013-06-04 03:02:00,
2013-06-03 23:12:00,57.0,44.0,-100.00,South,175,2.0,2.0,60,0.00,,,-99.99,,2013-06-04 03:12:00,
2013-06-03 23:22:00,55.0,44.0,-100.00,South,170,1.0,2.0,66,0.00,,,-99.99,,2013-06-04 03:22:00,
2013-06-03 23:32:00,56.0,44.0,-100.00,South,175,2.0,2.0,64,0.00,,,-99.99,,2013-06-04 03:32:00,
2013-06-03 23:43:00,56.0,44.0,-100.00,South,180,3.0,4.0,64,0.00,,,-99.99,,2013-06-04 03:43:00,
2013-06-03 23:53:00,55.0,45.0,-100.00,SSW,195,2.0,4.0,67,0.00,,,-99.99,,2013-06-04 03:53:00,